VLG3BV LEBB-LFPO

Flight info

Callsign VLG3BV
Flight time 1h 13m
Altitude 34000
Route SSN L176 LUSEM DCT LULUT DCT TUDRA DCT BEVOL UT158 AMB
Aircraft A320/M-SDE3FGHIRWY/LB1

Departure

Time 2026-05-07 08:43
Airport Bilbao Airport (LEBB)

Arrival

Time 2026-05-07 09:57
Airport Paris-Orly Airport (LFPO)
Time Latitude Longitude Altitude Speed Heading
2026-05-07 08:30 43.30428 -2.90634 132 ft 0 kts 26°
2026-05-07 08:36 43.30420 -2.90640 132 ft 4 kts 24°
2026-05-07 08:36 43.30394 -2.90652 132 ft 4 kts
2026-05-07 08:36 43.30368 -2.90653 132 ft 4 kts 341°
2026-05-07 08:36 43.30352 -2.90638 132 ft 1 kts 296°
2026-05-07 08:38 43.30353 -2.90640 132 ft 2 kts 296°
2026-05-07 08:39 43.30375 -2.90702 132 ft 13 kts 296°
2026-05-07 08:39 43.30414 -2.90834 132 ft 14 kts 274°
2026-05-07 08:39 43.30399 -2.90975 132 ft 13 kts 229°
2026-05-07 08:39 43.30314 -2.91042 132 ft 15 kts 230°
2026-05-07 08:40 43.30333 -2.91165 132 ft 13 kts 295°
2026-05-07 08:40 43.30375 -2.91284 132 ft 15 kts 296°
2026-05-07 08:40 43.30422 -2.91416 132 ft 17 kts 296°
2026-05-07 08:40 43.30472 -2.91552 132 ft 15 kts 297°
2026-05-07 08:41 43.30523 -2.91687 132 ft 17 kts 297°
2026-05-07 08:41 43.30580 -2.91837 132 ft 19 kts 297°
2026-05-07 08:41 43.30636 -2.91986 132 ft 18 kts 297°
2026-05-07 08:41 43.30692 -2.92143 132 ft 19 kts 296°
2026-05-07 08:42 43.30744 -2.92292 132 ft 17 kts 296°
2026-05-07 08:42 43.30789 -2.92418 132 ft 13 kts 295°
2026-05-07 08:42 43.30741 -2.92499 132 ft 14 kts 175°
2026-05-07 08:42 43.30633 -2.92450 125 ft 18 kts 159°
2026-05-07 08:43 43.30519 -2.92181 124 ft 64 kts 117°
2026-05-07 08:43 43.30227 -2.91379 126 ft 121 kts 116°
2026-05-07 08:43 43.29793 -2.90187 296 ft 148 kts 116°
2026-05-07 08:43 43.29351 -2.88991 1027 ft 137 kts 116°
2026-05-07 08:44 43.28903 -2.87804 1497 ft 147 kts 116°
2026-05-07 08:44 43.28409 -2.86461 1770 ft 170 kts 116°
2026-05-07 08:44 43.27840 -2.84910 2088 ft 193 kts 117°
2026-05-07 08:44 43.27202 -2.83165 2382 ft 214 kts 117°
2026-05-07 08:45 43.26497 -2.81239 2708 ft 239 kts 117°
2026-05-07 08:45 43.25881 -2.79038 3318 ft 256 kts 100°
2026-05-07 08:45 43.25939 -2.76600 4162 ft 263 kts 84°
2026-05-07 08:45 43.26189 -2.74094 5074 ft 268 kts 84°
2026-05-07 08:46 43.26458 -2.71547 5978 ft 272 kts 84°
2026-05-07 08:46 43.26736 -2.68956 6822 ft 277 kts 84°
2026-05-07 08:46 43.27016 -2.66319 7645 ft 282 kts 84°
2026-05-07 08:46 43.27298 -2.63630 8472 ft 287 kts 84°
2026-05-07 08:47 43.27581 -2.60904 9314 ft 291 kts 84°
2026-05-07 08:47 43.27867 -2.58143 10147 ft 295 kts 84°
2026-05-07 08:47 43.28163 -2.55258 10456 ft 317 kts 84°
2026-05-07 08:47 43.28478 -2.52157 10748 ft 336 kts 83°
2026-05-07 08:48 43.28804 -2.48947 11364 ft 343 kts 83°
2026-05-07 08:48 43.29136 -2.45682 12048 ft 348 kts 83°
2026-05-07 08:48 43.29474 -2.42380 12760 ft 351 kts 83°
2026-05-07 08:48 43.29816 -2.39037 13468 ft 355 kts 83°
2026-05-07 08:49 43.30157 -2.35665 14121 ft 358 kts 83°
2026-05-07 08:49 43.30497 -2.32258 14719 ft 362 kts 83°
2026-05-07 08:49 43.30840 -2.28816 15295 ft 366 kts 84°
2026-05-07 08:49 43.30997 -2.25320 15870 ft 368 kts 91°
2026-05-07 08:50 43.31008 -2.21790 16449 ft 372 kts 91°
2026-05-07 08:50 43.31021 -2.18219 17046 ft 375 kts 91°
2026-05-07 08:50 43.31035 -2.14617 17632 ft 379 kts 91°
2026-05-07 08:50 43.31050 -2.10978 18212 ft 383 kts 91°
2026-05-07 08:51 43.31065 -2.07356 18728 ft 386 kts 91°
2026-05-07 08:51 43.31080 -2.03651 19250 ft 390 kts 91°
2026-05-07 08:51 43.31090 -1.99915 19798 ft 393 kts 92°
2026-05-07 08:51 43.31099 -1.96149 20359 ft 396 kts 92°
2026-05-07 08:52 43.31127 -1.92354 20899 ft 399 kts 88°
2026-05-07 08:52 43.31577 -1.88578 21390 ft 405 kts 75°
2026-05-07 08:52 43.32626 -1.84972 21904 ft 410 kts 62°
2026-05-07 08:52 43.34247 -1.81737 22368 ft 414 kts 49°
2026-05-07 08:53 43.36369 -1.79045 22830 ft 418 kts 36°
2026-05-07 08:53 43.38025 -1.77583 23143 ft 420 kts 30°
2026-05-07 08:53 43.40527 -1.75474 23600 ft 423 kts 32°
2026-05-07 08:53 43.43004 -1.73266 24012 ft 426 kts 33°
2026-05-07 08:54 43.45474 -1.70991 24417 ft 428 kts 34°
2026-05-07 08:54 43.47948 -1.68689 24801 ft 431 kts 34°
2026-05-07 08:54 43.50444 -1.66377 25182 ft 434 kts 33°
2026-05-07 08:54 43.52962 -1.64066 25560 ft 436 kts 33°
2026-05-07 08:55 43.55468 -1.61782 25932 ft 439 kts 33°
2026-05-07 08:55 43.58029 -1.59457 26301 ft 442 kts 33°
2026-05-07 08:55 43.60607 -1.57124 26650 ft 445 kts 33°
2026-05-07 08:55 43.63202 -1.54774 27012 ft 447 kts 33°
2026-05-07 08:56 43.65809 -1.52414 27364 ft 450 kts 33°
2026-05-07 08:56 43.68437 -1.50030 27732 ft 453 kts 33°
2026-05-07 08:56 43.71074 -1.47630 28106 ft 455 kts 33°
2026-05-07 08:56 43.73728 -1.45209 28460 ft 458 kts 33°
2026-05-07 08:57 43.76394 -1.42771 28823 ft 461 kts 33°
2026-05-07 08:57 43.79075 -1.40313 29188 ft 464 kts 33°
2026-05-07 08:57 43.81774 -1.37835 29552 ft 467 kts 33°
2026-05-07 08:57 43.84484 -1.35347 29926 ft 469 kts 33°
2026-05-07 08:58 43.87208 -1.32843 30234 ft 471 kts 33°
2026-05-07 08:58 43.89954 -1.30326 30546 ft 473 kts 33°
2026-05-07 08:58 43.92698 -1.27812 30963 ft 473 kts 33°
2026-05-07 08:58 43.95442 -1.25288 31376 ft 473 kts 33°
2026-05-07 08:59 43.98184 -1.22761 31781 ft 473 kts 33°
2026-05-07 08:59 44.00924 -1.20230 32189 ft 473 kts 33°
2026-05-07 08:59 44.03663 -1.17699 32616 ft 473 kts 33°
2026-05-07 08:59 44.06402 -1.15160 33032 ft 473 kts 32°
2026-05-07 09:00 44.09139 -1.12620 33431 ft 473 kts 32°
2026-05-07 09:00 44.11878 -1.10079 33844 ft 473 kts 32°
2026-05-07 09:00 44.14637 -1.07522 34005 ft 480 kts 32°
2026-05-07 09:00 44.17441 -1.04922 34021 ft 488 kts 32°
2026-05-07 09:01 44.23181 -0.99583 34024 ft 504 kts 32°
2026-05-07 09:01 44.29084 -0.94076 34203 ft 509 kts 32°
2026-05-07 09:02 44.32001 -0.91348 33889 ft 501 kts 32°
2026-05-07 09:02 44.34853 -0.88675 34021 ft 484 kts 32°
2026-05-07 09:02 44.40409 -0.83583 34020 ft 473 kts 27°
2026-05-07 09:03 44.46223 -0.79352 34025 ft 470 kts 25°
2026-05-07 09:03 44.52037 -0.75131 34014 ft 470 kts 25°
2026-05-07 09:04 44.57835 -0.70902 34033 ft 470 kts 25°
2026-05-07 09:04 44.63627 -0.66662 34038 ft 470 kts 25°
2026-05-07 09:05 44.69388 -0.62433 34047 ft 470 kts 25°
2026-05-07 09:05 44.75184 -0.58169 34050 ft 470 kts 25°
2026-05-07 09:06 44.80983 -0.53918 34048 ft 470 kts 25°
2026-05-07 09:06 44.86772 -0.49650 34046 ft 469 kts 25°
2026-05-07 09:07 44.92553 -0.45369 34046 ft 469 kts 25°
2026-05-07 09:07 44.98331 -0.41080 34043 ft 469 kts 25°
2026-05-07 09:08 45.04085 -0.36800 34052 ft 469 kts 25°
2026-05-07 09:08 45.09875 -0.32488 34050 ft 468 kts 25°
2026-05-07 09:09 45.15631 -0.28200 34045 ft 467 kts 25°
2026-05-07 09:09 45.21379 -0.23897 34063 ft 467 kts 26°
2026-05-07 09:10 45.27111 -0.19586 34062 ft 466 kts 26°
2026-05-07 09:10 45.32835 -0.15284 34047 ft 465 kts 26°
2026-05-07 09:11 45.38561 -0.10985 34062 ft 465 kts 26°
2026-05-07 09:11 45.44278 -0.06679 34052 ft 465 kts 26°
2026-05-07 09:12 45.49978 -0.02365 34043 ft 464 kts 26°
2026-05-07 09:12 45.55667 0.01956 34040 ft 463 kts 26°
2026-05-07 09:13 45.61319 0.06251 34047 ft 462 kts 26°
2026-05-07 09:13 45.66988 0.10573 34044 ft 461 kts 26°
2026-05-07 09:14 45.72647 0.14893 34048 ft 461 kts 26°
2026-05-07 09:14 45.78298 0.19224 34048 ft 460 kts 26°
2026-05-07 09:15 45.83944 0.23553 34043 ft 460 kts 26°
2026-05-07 09:15 45.89579 0.27882 34040 ft 459 kts 26°
2026-05-07 09:16 45.95207 0.32222 34040 ft 459 kts 26°
2026-05-07 09:16 46.00827 0.36578 34052 ft 459 kts 26°
2026-05-07 09:17 46.06443 0.40932 34041 ft 458 kts 26°
2026-05-07 09:17 46.12055 0.45276 34048 ft 458 kts 26°
2026-05-07 09:18 46.17663 0.49627 34064 ft 457 kts 27°
2026-05-07 09:18 46.23257 0.53989 34056 ft 456 kts 27°
2026-05-07 09:19 46.28827 0.58355 34051 ft 455 kts 27°
2026-05-07 09:19 46.34390 0.62717 34054 ft 455 kts 27°
2026-05-07 09:20 46.39951 0.67088 34059 ft 455 kts 27°
2026-05-07 09:20 46.45508 0.71468 34061 ft 454 kts 27°
2026-05-07 09:21 46.51061 0.75850 34057 ft 454 kts 27°
2026-05-07 09:21 46.56926 0.79053 34068 ft 450 kts 10°
2026-05-07 09:22 46.63048 0.80938 34057 ft 449 kts 10°
2026-05-07 09:22 46.69156 0.82871 34061 ft 449 kts 10°
2026-05-07 09:23 46.75256 0.84822 34065 ft 449 kts 10°
2026-05-07 09:23 46.81359 0.86762 34068 ft 449 kts 10°
2026-05-07 09:24 46.87460 0.88697 34071 ft 449 kts 10°
2026-05-07 09:24 46.93558 0.90641 34063 ft 449 kts 10°
2026-05-07 09:25 46.99673 0.92605 33237 ft 453 kts 10°
2026-05-07 09:25 47.02760 0.93596 32469 ft 454 kts 10°
2026-05-07 09:25 47.05838 0.94578 31894 ft 451 kts 10°
2026-05-07 09:26 47.08889 0.95546 31353 ft 447 kts 10°
2026-05-07 09:26 47.11915 0.96504 30836 ft 443 kts 10°
2026-05-07 09:26 47.14916 0.97457 30322 ft 439 kts 10°
2026-05-07 09:26 47.17906 0.98407 29464 ft 441 kts 11°
2026-05-07 09:27 47.20901 0.99361 28740 ft 440 kts 11°
2026-05-07 09:27 47.23878 1.00317 28109 ft 436 kts 11°
2026-05-07 09:27 47.29757 1.02210 26900 ft 428 kts 10°
2026-05-07 09:28 47.32655 1.03138 26340 ft 425 kts 10°
2026-05-07 09:28 47.35532 1.04062 25770 ft 421 kts 10°
2026-05-07 09:28 47.38381 1.04979 25212 ft 418 kts 10°
2026-05-07 09:28 47.41208 1.05892 24683 ft 414 kts 10°
2026-05-07 09:29 47.43978 1.06984 24153 ft 412 kts 17°
2026-05-07 09:29 47.46675 1.08376 23628 ft 409 kts 17°
2026-05-07 09:29 47.49286 1.09727 23039 ft 406 kts 17°
2026-05-07 09:29 47.51964 1.11107 22474 ft 403 kts 17°
2026-05-07 09:30 47.54605 1.12452 21923 ft 400 kts 17°
2026-05-07 09:30 47.57225 1.13777 21413 ft 397 kts 17°
2026-05-07 09:30 47.59792 1.15072 20899 ft 393 kts 17°
2026-05-07 09:30 47.62410 1.16394 20367 ft 391 kts 17°
2026-05-07 09:31 47.64939 1.17670 19862 ft 388 kts 17°
2026-05-07 09:31 47.67483 1.18958 19357 ft 385 kts 17°
2026-05-07 09:31 47.70007 1.20245 18852 ft 382 kts 17°
2026-05-07 09:31 47.72499 1.21522 18355 ft 380 kts 17°
2026-05-07 09:32 47.74986 1.22797 17792 ft 376 kts 17°
2026-05-07 09:32 47.77452 1.24062 17199 ft 374 kts 17°
2026-05-07 09:32 47.79905 1.25317 16659 ft 372 kts 17°
2026-05-07 09:32 47.82343 1.26563 16106 ft 369 kts 17°
2026-05-07 09:33 47.84761 1.27801 15595 ft 366 kts 17°
2026-05-07 09:33 47.87163 1.29031 15065 ft 364 kts 18°
2026-05-07 09:33 47.89548 1.30258 14551 ft 362 kts 18°
2026-05-07 09:33 47.91844 1.31761 14049 ft 361 kts 31°
2026-05-07 09:34 47.93715 1.34207 13528 ft 359 kts 51°
2026-05-07 09:34 47.94948 1.37417 12985 ft 357 kts 70°
2026-05-07 09:34 47.95759 1.40906 12434 ft 355 kts 65°
2026-05-07 09:34 47.97118 1.43931 11925 ft 350 kts 44°
2026-05-07 09:35 47.99049 1.46073 11506 ft 344 kts 24°
2026-05-07 09:35 48.01302 1.47165 11259 ft 341 kts
2026-05-07 09:35 48.03657 1.47200 11074 ft 338 kts 353°
2026-05-07 09:35 48.06003 1.46899 11051 ft 338 kts 353°
2026-05-07 09:36 48.08357 1.46756 11055 ft 341 kts
2026-05-07 09:36 48.10654 1.47649 11059 ft 345 kts 24°
2026-05-07 09:36 48.12615 1.49707 11062 ft 347 kts 45°
2026-05-07 09:36 48.14043 1.52624 11064 ft 347 kts 56°
2026-05-07 09:37 48.15320 1.55587 11055 ft 331 kts 56°
2026-05-07 09:37 48.16562 1.58459 11058 ft 328 kts 56°
2026-05-07 09:37 48.17383 1.60353 11059 ft 327 kts 56°
2026-05-07 09:37 48.18623 1.63212 10943 ft 327 kts 56°
2026-05-07 09:38 48.19860 1.66058 10700 ft 325 kts 56°
2026-05-07 09:38 48.21089 1.68888 10459 ft 323 kts 56°
2026-05-07 09:38 48.22310 1.71698 10218 ft 319 kts 57°
2026-05-07 09:38 48.23520 1.74485 9982 ft 317 kts 57°
2026-05-07 09:39 48.24706 1.77224 9842 ft 309 kts 57°
2026-05-07 09:39 48.25860 1.79888 9709 ft 300 kts 57°
2026-05-07 09:39 48.26981 1.82485 9486 ft 294 kts 57°
2026-05-07 09:39 48.28085 1.85042 9184 ft 291 kts 56°
2026-05-07 09:40 48.29179 1.87582 8867 ft 289 kts 56°
2026-05-07 09:40 48.30266 1.90105 8547 ft 287 kts 56°
2026-05-07 09:40 48.31344 1.92613 8223 ft 285 kts 56°
2026-05-07 09:40 48.32414 1.95105 7912 ft 283 kts 56°
2026-05-07 09:41 48.33476 1.97577 7610 ft 280 kts 56°
2026-05-07 09:41 48.34531 2.00028 7289 ft 278 kts 56°
2026-05-07 09:41 48.35576 2.02464 6963 ft 276 kts 56°
2026-05-07 09:41 48.36612 2.04891 6648 ft 275 kts 56°
2026-05-07 09:42 48.37642 2.07299 6357 ft 273 kts 56°
2026-05-07 09:42 48.38666 2.09693 6107 ft 271 kts 56°
2026-05-07 09:42 48.39684 2.12069 5985 ft 268 kts 56°
2026-05-07 09:42 48.40696 2.14435 5864 ft 270 kts 56°
2026-05-07 09:43 48.41706 2.16805 5737 ft 270 kts 57°
2026-05-07 09:43 48.42713 2.19167 5616 ft 266 kts 57°
2026-05-07 09:43 48.43709 2.21505 5487 ft 265 kts 57°
2026-05-07 09:43 48.44702 2.23836 5357 ft 264 kts 57°
2026-05-07 09:44 48.45689 2.26159 5237 ft 263 kts 57°
2026-05-07 09:44 48.46671 2.28476 5116 ft 262 kts 57°
2026-05-07 09:44 48.47650 2.30793 4986 ft 262 kts 57°
2026-05-07 09:44 48.48625 2.33107 4857 ft 261 kts 57°
2026-05-07 09:45 48.49599 2.35410 4735 ft 259 kts 57°
2026-05-07 09:45 48.50564 2.37702 4619 ft 260 kts 57°
2026-05-07 09:45 48.51534 2.39990 4464 ft 258 kts 57°
2026-05-07 09:45 48.52497 2.42275 4381 ft 259 kts 57°
2026-05-07 09:46 48.53466 2.44565 4288 ft 259 kts 57°
2026-05-07 09:46 48.54435 2.46855 4187 ft 258 kts 57°
2026-05-07 09:46 48.55401 2.49139 4078 ft 258 kts 57°
2026-05-07 09:46 48.56363 2.51423 3984 ft 258 kts 57°
2026-05-07 09:47 48.57323 2.53709 3880 ft 258 kts 57°
2026-05-07 09:47 48.58285 2.55992 3781 ft 257 kts 57°
2026-05-07 09:47 48.59244 2.58275 3722 ft 258 kts 57°
2026-05-07 09:47 48.60201 2.60562 3663 ft 258 kts 58°
2026-05-07 09:48 48.61166 2.62867 3625 ft 260 kts 58°
2026-05-07 09:48 48.62131 2.65169 3573 ft 260 kts 58°
2026-05-07 09:48 48.63095 2.67472 3521 ft 259 kts 58°
2026-05-07 09:48 48.64054 2.69771 3469 ft 258 kts 58°
2026-05-07 09:49 48.65012 2.72064 3418 ft 258 kts 57°
2026-05-07 09:49 48.65971 2.74366 3365 ft 259 kts 57°
2026-05-07 09:49 48.66933 2.76673 3308 ft 258 kts 57°
2026-05-07 09:49 48.67949 2.78906 3260 ft 257 kts 48°
2026-05-07 09:50 48.69315 2.80650 3213 ft 258 kts 31°
2026-05-07 09:50 48.70933 2.81698 3107 ft 253 kts 14°
2026-05-07 09:50 48.72644 2.81985 2990 ft 244 kts 359°
2026-05-07 09:50 48.74278 2.81864 2984 ft 227 kts 349°
2026-05-07 09:51 48.75705 2.81084 2999 ft 212 kts 330°
2026-05-07 09:51 48.76843 2.79710 3000 ft 210 kts 312°
2026-05-07 09:51 48.77648 2.77874 3000 ft 211 kts 299°
2026-05-07 09:51 48.78337 2.75916 3002 ft 210 kts 294°
2026-05-07 09:52 48.78677 2.73769 3013 ft 211 kts 272°
2026-05-07 09:52 48.78462 2.71564 3018 ft 213 kts 255°
2026-05-07 09:52 48.78066 2.69405 3018 ft 213 kts 255°
2026-05-07 09:52 48.77672 2.67234 3012 ft 212 kts 255°
2026-05-07 09:53 48.77294 2.65146 3007 ft 199 kts 255°
2026-05-07 09:53 48.76935 2.63170 2999 ft 193 kts 255°
2026-05-07 09:53 48.76584 2.61231 3008 ft 189 kts 255°
2026-05-07 09:53 48.76232 2.59304 2943 ft 190 kts 255°
2026-05-07 09:54 48.75885 2.57389 2744 ft 188 kts 256°
2026-05-07 09:54 48.75540 2.55491 2482 ft 183 kts 255°
2026-05-07 09:54 48.75206 2.53654 2240 ft 179 kts 255°
2026-05-07 09:54 48.74879 2.51863 1998 ft 174 kts 255°
2026-05-07 09:55 48.74562 2.50139 1775 ft 167 kts 256°
2026-05-07 09:55 48.74267 2.48529 1535 ft 150 kts 256°
2026-05-07 09:55 48.73997 2.47049 1328 ft 143 kts 256°
2026-05-07 09:55 48.73733 2.45610 1136 ft 141 kts 256°
2026-05-07 09:56 48.73471 2.44180 944 ft 141 kts 255°
2026-05-07 09:56 48.73210 2.42760 762 ft 140 kts 256°
2026-05-07 09:56 48.72951 2.41346 572 ft 139 kts 255°
2026-05-07 09:56 48.72684 2.39920 373 ft 142 kts 256°
2026-05-07 09:57 48.72430 2.38541 308 ft 125 kts 255°
2026-05-07 09:57 48.72249 2.37502 298 ft 77 kts 254°
2026-05-07 09:57 48.72144 2.36947 300 ft 42 kts 253°
2026-05-07 09:57 48.72066 2.36538 304 ft 40 kts 254°
2026-05-07 09:58 48.71993 2.36140 305 ft 38 kts 254°
2026-05-07 09:58 48.71978 2.35871 304 ft 21 kts 305°
2026-05-07 09:58 48.72062 2.35683 302 ft 21 kts 319°
2026-05-07 09:58 48.72208 2.35603 301 ft 23 kts 346°
2026-05-07 09:59 48.72336 2.35465 305 ft 25 kts 301°
2026-05-07 09:59 48.72486 2.35346 302 ft 26 kts 344°
2026-05-07 09:59 48.72668 2.35266 300 ft 28 kts 344°
2026-05-07 09:59 48.72830 2.35298 302 ft 21 kts 19°
2026-05-07 10:00 48.72901 2.35414 299 ft 16 kts 85°
2026-05-07 10:00 48.72968 2.35529 299 ft 17 kts 12°
2026-05-07 10:00 48.73056 2.35634 304 ft 17 kts 61°
2026-05-07 10:00 48.73103 2.35768 300 ft 8 kts 82°
2026-05-07 10:01 48.73072 2.35813 301 ft 7 kts 135°
2026-05-07 10:01 48.73046 2.35856 303 ft 2 kts 133°
2026-05-07 10:01 48.73045 2.35859 300 ft 0 kts 133°